Wind_Gust
25 25 25 25 24 24 24 24 24 23 23 23 23 23 22 22 22 21 21 20 21 22 22 23 23 23 24 24 24 20 19 15 20 16 11 16 13 8 10 9 9 9 7 4 7 11 9 9 9 11 10 3 10 10 10 9 10 8 23 25 25 19 20 12 20 20 9 16 14 11 11 14 21 19 27 16 15 20 24 27 14 7 14 19 12 25 28 30
26 26 26 26 25 25 24 24 24 24 24 23 23 23 22 22 21 21 21 21 21 22 22 22 23 23 24 23 23 20 17 10 15 14 23 14 9 10 7 8 6 7 4 5 6 4 6 9 6 8 9 7 4 10 10 16 14 19 15 20 31 21 16 9 10 10 17 18 11 16 19 22 20 22 20 17 12 18 23 17 9 14 13 12 23 25 29 27
27 27 26 26 26 25 25 25 25 24 24 23 23 23 23 22 21 21 21 21 22 22 23 23 22 22 22 21 18 16 13 12 8 7 11 6 20 14 11 9 7 5 3 3 3 3 4 6 9 9 8 8 8 11 8 17 15 15 13 22 27 8 8 11 8 10 11 10 20 21 22 25 25 28 11 15 14 20 26 23 6 19 20 19 24 29 29 29
27 26 26 26 26 26 26 25 24 24 24 23 23 23 22 22 22 22 22 22 21 23 23 23 22 21 21 20 16 12 7 7 5 8 7 6 6 11 11 9 7 6 4 4 3 5 3 6 9 5 8 7 9 9 14 14 19 11 19 24 15 10 11 12 11 11 14 12 9 10 9 12 16 14 12 5 24 21 24 25 31 21 25 26 30 31 30 28
27 26 26 26 26 26 25 25 25 24 24 24 23 23 23 22 22 22 22 22 22 22 22 22 20 20 20 17 17 5 6 10 6 4 11 6 6 7 8 8 8 4 4 3 4 4 3 7 8 6 7 12 6 5 15 9 13 10 14 11 9 5 16 12 10 12 15 14 13 9 10 18 9 9 8 12 16 26 23 23 33 36 22 23 24 28 28 28
27 27 27 27 26 26 26 26 25 25 25 24 24 23 23 23 23 23 22 22 22 23 22 21 19 18 17 15 11 3 4 7 7 8 6 8 8 8 9 9 9 6 4 5 4 6 7 6 5 7 6 6 6 14 8 13 8 21 18 8 5 12 11 4 14 20 18 22 21 18 15 9 11 12 8 9 16 17 32 40 39 39 39 35 32 29 30 30
27 28 27 27 27 27 26 26 26 26 25 25 24 24 24 23 23 23 23 22 22 22 21 19 17 18 17 13 3 6 6 16 7 14 7 9 10 9 9 9 11 5 4 6 5 6 2 10 6 8 7 9 9 14 14 9 10 16 25 5 12 11 11 11 9 8 17 27 30 27 16 16 12 20 7 13 10 18 21 27 41 39 42 37 37 38 36 33
28 28 28 28 28 28 27 27 27 27 27 26 25 25 24 24 24 23 23 22 22 21 19 17 16 16 14 7 4 7 4 10 15 8 12 10 9 11 10 5 6 4 4 7 6 7 5 10 13 8 8 10 8 9 6 15 12 18 25 12 13 10 12 15 11 10 11 11 15 18 21 24 18 17 9 15 12 16 21 22 23 28 31 35 36 36 40 38
29 29 29 29 28 28 28 27 28 27 27 28 26 26 26 24 24 23 22 21 19 19 17 15 14 13 9 4 7 6 7 10 8 8 8 6 10 10 5 7 4 4 6 7 7 11 3 6 8 7 9 12 4 8 7 7 17 18 13 10 14 16 11 13 18 17 13 11 8 16 23 25 19 10 15 16 13 17 23 29 25 22 23 26 33 36 37 38
28 28 29 29 29 28 29 29 28 28 28 28 28 27 26 24 23 22 22 20 19 17 15 12 12 13 6 7 6 11 8 8 6 10 8 9 9 7 5 11 7 7 7 9 7 4 4 7 6 14 10 9 5 8 6 5 11 10 8 16 18 16 17 13 17 20 15 14 6 14 18 24 19 11 22 6 17 20 11 11 21 28 23 25 27 33 36 39
28 28 29 28 29 29 29 30 30 29 29 28 28 28 26 25 24 21 20 18 17 15 12 10 10 10 5 4 8 6 10 5 2 5 8 10 7 7 10 7 8 7 6 10 10 8 7 7 7 12 6 6 9 11 11 7 7 12 9 7 16 19 18 15 13 19 15 21 15 16 20 21 32 12 28 12 10 17 25 22 23 25 31 35 31 29 26 25
28 29 29 29 30 30 30 31 30 29 29 29 29 28 26 24 23 21 19 17 15 13 10 8 8 4 4 5 5 14 6 5 8 7 10 11 10 12 11 10 7 7 6 9 12 7 7 9 7 10 8 8 9 9 10 5 9 10 7 6 10 8 24 19 28 20 20 24 10 7 9 20 26 21 16 11 10 13 29 28 26 29 31 29 31 30 24 23
29 29 30 30 30 31 30 31 30 30 30 30 28 27 25 23 22 21 17 16 11 10 9 7 3 4 4 8 15 15 8 11 10 10 8 10 8 7 10 9 10 8 9 7 10 7 8 8 4 10 6 6 8 10 12 9 11 9 3 8 8 6 11 13 16 22 23 30 11 11 24 18 27 32 12 7 13 9 18 28 26 24 24 26 29 28 23 21
29 29 30 30 31 31 31 30 31 30 30 28 28 27 26 25 22 20 17 14 12 10 8 5 5 4 4 11 14 7 8 7 6 8 11 4 5 11 9 11 13 10 6 9 11 8 9 7 5 7 8 4 10 5 13 15 6 8 11 5 8 4 14 9 17 12 23 24 18 10 21 21 22 25 8 9 15 18 22 26 22 18 21 25 21 22 27 25
30 31 30 31 31 31 31 31 30 30 29 28 28 29 27 26 21 18 16 11 8 9 8 6 4 6 8 19 10 12 14 3 7 12 8 6 6 9 8 7 11 12 10 9 8 3 6 6 6 7 11 4 4 7 10 9 8 7 8 11 8 7 12 11 9 16 25 23 23 14 25 24 20 25 6 10 17 21 25 25 27 23 21 22 27 27 22 27
31 31 31 31 31 31 31 31 29 28 27 28 28 30 30 28 21 15 12 10 6 9 6 2 2 5 3 16 6 11 8 7 11 10 8 5 5 8 8 6 8 7 7 9 10 8 5 4 7 9 8 7 5 4 6 12 12 10 7 6 6 3 10 12 5 12 21 17 18 23 24 7 23 23 13 9 15 24 24 26 22 25 25 27 24 27 29 27
32 31 31 30 30 30 31 30 29 30 27 28 28 30 27 21 14 12 9 8 7 6 5 4 3 5 5 8 8 9 11 11 7 6 5 6 7 6 7 8 6 8 8 8 6 5 5 4 5 6 8 8 4 4 4 7 9 10 4 7 5 5 5 11 12 4 8 18 20 19 33 17 10 10 7 6 15 19 24 28 25 26 28 29 26 26 28 28
32 32 31 30 29 30 29 29 30 29 29 30 28 22 28 22 12 13 11 7 5 4 3 2 6 6 15 9 13 13 15 13 14 12 5 5 6 6 3 8 6 9 7 9 7 7 5 6 9 8 6 7 2 4 8 10 14 9 5 6 11 4 5 9 7 7 4 6 21 23 23 18 18 20 17 9 9 15 24 28 27 27 26 30 27 25 25 25
32 31 31 31 30 29 29 27 28 27 26 31 27 22 9 8 5 3 7 4 4 9 10 10 13 10 8 17 23 15 13 11 11 4 8 7 5 6 6 4 5 5 9 8 10 7 6 6 9 6 9 6 7 11 13 14 7 11 8 8 4 7 9 11 11 10 7 7 12 12 13 12 15 18 20 14 7 14 16 19 22 24 25 28 29 27 27 26
33 31 32 32 31 30 29 27 26 24 24 20 20 18 13 20 17 12 13 7 5 4 6 10 7 11 17 18 14 13 12 6 9 8 7 6 4 6 6 6 6 10 8 10 12 6 8 6 7 10 13 13 10 12 14 14 10 11 11 6 9 7 11 9 10 14 7 7 12 16 8 8 9 13 19 12 8 9 13 17 18 18 21 18 21 23 24 25
32 32 32 33 31 31 29 28 23 21 19 10 10 14 15 11 9 14 17 18 8 6 11 16 12 13 16 13 13 12 16 10 6 6 7 3 4 4 10 8 10 13 8 9 11 7 10 6 11 14 16 14 14 11 8 9 8 13 12 8 12 4 9 12 11 10 9 9 8 9 9 9 14 13 16 8 10 12 15 17 24 25 19 20 21 31 30 32
32 31 32 31 33 31 27 26 28 23 14 4 10 13 5 5 5 7 6 17 17 8 8 16 11 12 12 18 13 7 6 10 14 14 10 5 6 9 7 10 5 8 10 10 11 16 8 13 16 15 13 8 9 13 13 12 13 8 12 12 9 15 11 17 11 6 8 8 16 13 11 9 12 13 17 15 12 13 18 19 23 25 23 23 30 24 27 27
31 33 30 32 32 31 28 26 25 22 10 11 11 5 8 8 3 3 4 8 13 11 10 9 5 9 10 9 7 7 6 5 12 14 11 7 8 5 7 10 11 10 11 8 11 8 11 9 14 16 11 8 8 8 6 3 4 8 3 3 9 9 4 11 10 7 11 7 9 14 16 15 9 10 17 15 14 9 10 15 17 23 26 30 37 32 33 28
31 32 31 30 31 29 28 26 23 6 10 4 2 5 6 5 4 5 8 5 9 14 7 9 3 3 8 10 8 9 4 9 6 11 7 6 7 5 7 5 8 9 12 11 5 5 8 14 8 8 5 7 7 8 6 8 9 5 5 5 4 3 5 10 10 9 7 11 5 10 10 14 8 9 14 15 15 10 8 9 9 12 20 26 31 33 34 36
32 31 30 30 30 30 29 23 8 7 11 2 4 6 5 6 2 5 8 9 5 13 8 5 6 4 8 6 5 10 4 10 5 7 7 3 7 7 4 6 5 6 10 10 6 10 12 8 9 16 17 12 9 8 6 5 11 11 8 10 6 5 7 7 7 7 14 12 9 10 11 15 14 11 14 20 19 16 7 11 11 13 12 14 22 25 26 29
30 31 29 27 27 29 28 6 8 14 10 4 5 5 6 6 5 5 13 8 7 14 15 7 10 9 11 12 16 9 4 10 8 8 6 6 4 3 8 9 5 6 7 11 8 11 7 10 9 9 11 9 9 5 7 5 4 6 12 5 6 6 6 4 6 8 6 9 10 7 11 16 14 16 13 15 11 15 6 9 12 16 15 12 18 21 24 25
30 29 28 26 23 23 13 5 6 11 4 7 5 5 6 6 2 6 10 13 11 12 11 18 10 17 19 13 16 7 13 13 19 5 10 8 8 4 4 9 8 4 7 10 15 13 12 16 12 13 12 11 9 10 8 6 7 9 7 5 5 5 6 5 7 5 8 6 8 9 9 9 12 17 8 10 13 15 7 9 11 15 16 17 17 19 19 25
31 29 26 23 22 13 7 9 12 8 8 8 5 8 9 5 8 10 14 9 21 12 12 19 10 12 14 17 10 13 9 11 12 10 10 12 6 9 5 7 5 7 7 8 11 12 4 12 9 11 8 9 8 5 7 5 7 12 7 7 6 7 5 6 9 5 3 4 13 12 8 7 9 15 11 6 8 9 11 11 12 12 12 14 17 19 19 22
29 27 24 20 20 12 6 4 2 7 9 7 7 8 10 8 11 13 12 12 14 15 14 9 14 10 18 13 17 13 9 13 9 10 17 8 10 5 7 4 6 6 6 4 11 14 7 8 8 7 6 11 7 6 6 6 11 8 7 7 7 7 7 6 6 6 6 8 9 5 6 11 12 13 13 7 9 6 10 8 10 10 11 12 15 14 20 18
27 24 21 18 12 5 3 4 8 12 9 11 12 9 7 11 10 12 14 8 13 13 12 12 14 12 9 13 11 16 13 10 9 17 9 10 15 10 7 2 5 5 7 10 5 11 11 10 9 8 7 9 7 8 4 3 5 10 6 8 10 10 8 6 11 8 11 6 9 7 5 8 10 13 9 7 9 7 9 11 7 9 8 10 11 14 21 20
26 22 18 11 5 4 6 9 15 12 11 8 8 8 9 16 13 10 10 12 10 12 15 9 15 10 15 15 15 16 7 8 17 14 16 14 18 13 16 10 14 10 10 13 8 15 15 11 9 8 6 8 2 13 6 4 5 9 11 7 11 14 13 10 10 10 8 12 9 7 5 5 10 13 12 12 9 5 6 8 10 9 8 9 9 12 16 18
27 24 14 7 8 3 6 8 8 6 12 13 12 12 11 7 17 18 9 8 14 17 5 14 10 13 12 6 14 21 14 11 13 17 16 12 9 20 15 9 13 13 12 9 14 12 10 7 7 9 8 8 6 11 16 11 15 16 11 17 10 10 14 13 11 9 8 15 6 5 5 7 8 17 14 11 11 11 6 8 10 8 9 9 10 11 16 15
29 24 22 11 10 4 11 14 9 11 9 12 12 8 15 15 10 8 9 12 10 7 14 4 9 14 9 8 14 16 8 9 15 15 13 9 12 11 5 13 6 7 5 6 7 14 13 9 10 11 9 8 6 10 13 13 11 13 11 6 8 6 7 8 11 9 10 13 9 6 6 9 11 18 13 16 12 9 8 9 9 7 7 9 11 12 14 14
28 23 13 5 15 14 9 5 9 6 9 9 11 15 20 19 6 6 7 5 7 6 5 11 12 8 12 16 8 18 13 5 16 25 11 11 12 17 16 13 15 10 8 4 11 6 9 14 11 9 12 10 10 5 8 7 4 4 3 6 7 10 11 7 9 9 12 13 14 9 8 16 7 14 4 8 12 12 10 10 8 6 7 8 10 11 13 11
29 18 8 4 7 15 19 13 9 2 9 10 23 19 15 7 4 7 6 7 10 6 6 6 9 9 9 11 6 13 12 13 15 17 11 13 11 10 15 11 13 9 8 10 7 5 5 11 16 6 8 5 10 5 5 6 9 5 5 9 10 7 12 5 10 6 10 14 17 13 16 9 16 11 16 12 13 13 13 12 7 11 6 7 9 10 11 12
14 9 6 8 4 8 10 10 6 7 8 17 21 17 11 9 7 5 10 6 5 8 9 7 7 13 6 9 4 16 10 10 13 16 10 10 9 13 14 14 15 14 11 8 9 5 9 7 7 15 4 4 8 6 6 6 11 8 8 4 9 9 10 9 8 5 6 10 21 10 18 19 16 13 10 13 13 18 14 16 14 14 11 5 7 9 9 11
14 14 7 6 6 6 8 8 11 11 15 19 17 8 7 4 8 5 6 3 4 4 7 14 15 8 12 15 9 11 13 8 10 14 15 9 10 15 15 7 10 13 12 7 12 7 7 18 11 5 10 7 8 7 3 4 11 8 10 11 5 5 9 10 9 12 8 8 24 8 13 14 8 29 12 13 14 14 14 13 14 15 16 9 7 9 11 13
12 8 6 7 10 5 9 11 11 13 14 15 9 7 3 6 3 4 2 3 6 6 9 8 8 9 8 6 12 10 9 9 13 11 8 8 12 4 6 14 6 14 13 10 8 9 7 13 10 3 5 13 11 6 9 5 5 8 11 4 12 11 10 10 10 9 9 15 18 15 8 15 13 24 14 15 15 18 17 15 14 18 17 16 8 9 11 13
4 5 10 8 9 7 7 10 13 10 12 16 5 9 5 6 2 2 6 7 3 6 7 4 6 5 4 6 7 6 6 18 11 8 10 8 13 7 7 9 12 17 15 15 10 12 8 4 15 7 9 10 9 10 5 12 13 4 5 10 6 12 8 5 11 8 10 10 7 18 7 27 20 20 10 15 11 12 14 15 16 17 15 17 15 8 11 13
9 7 8 6 7 8 6 10 10 14 14 8 3 5 6 5 2 3 5 4 5 8 4 2 1 4 5 6 3 8 6 4 7 8 5 8 11 8 7 9 16 21 16 12 5 5 9 3 8 15 9 8 12 7 7 8 7 12 14 9 10 10 8 10 6 11 12 14 12 15 25 31 24 11 7 11 11 12 12 15 15 14 13 14 14 12 8 15
6 7 8 7 11 6 10 16 19 9 7 5 2 3 2 4 3 4 6 5 4 3 4 4 6 5 5 7 7 3 8 6 6 7 6 7 7 15 5 16 15 16 17 12 7 11 8 9 6 15 20 9 12 10 7 7 3 5 9 12 12 5 9 6 18 7 10 16 18 11 35 33 28 12 14 12 13 12 12 13 15 12 13 15 16 11 8 10
8 7 6 3 10 5 8 13 12 3 8 4 7 7 5 5 4 4 3 3 5 7 4 6 2 3 3 4 3 4 9 9 4 5 6 7 6 7 8 9 10 11 13 13 8 5 5 7 7 12 11 17 19 17 13 10 9 10 8 7 6 6 8 10 11 14 9 11 5 8 15 47 15 17 15 13 13 14 11 7 15 16 14 13 16 13 11 10
11 8 10 9 9 6 13 8 6 12 5 7 6 3 3 3 3 4 4 3 4 5 5 6 3 4 5 7 3 4 3 12 5 6 6 6 10 11 9 9 8 11 10 9 6 6 9 8 9 12 13 15 18 13 11 7 8 9 11 8 12 10 6 5 6 7 7 9 12 13 17 45 11 12 13 10 9 14 15 14 19 23 22 21 17 15 13 11
7 6 13 10 8 12 18 11 9 9 9 9 4 5 4 4 3 6 5 3 5 5 5 5 5 4 3 3 4 8 3 13 6 8 9 5 11 7 8 9 10 11 8 5 6 7 14 5 6 11 17 17 13 13 12 9 13 9 6 6 5 6 5 4 6 3 11 12 12 13 31 44 10 8 11 20 26 26 28 28 24 26 28 25 26 24 21 19
12 8 7 17 16 14 12 8 7 4 8 6 8 9 11 8 3 3 2 3 1 2 4 5 3 2 5 3 4 3 4 4 12 6 7 4 11 6 11 14 9 11 7 9 12 5 5 6 5 7 8 12 14 11 10 12 11 12 4 5 7 8 8 12 8 10 12 7 7 21 39 39 13 21 24 24 25 30 29 28 27 25 27 29 27 26 25 23
11 11 15 15 18 15 11 3 8 7 9 8 9 9 2 7 8 6 5 5 3 2 4 3 3 2 2 5 6 5 6 5 7 10 7 8 9 11 7 9 10 11 10 11 8 9 4 3 5 7 10 13 15 13 7 4 9 14 16 13 19 14 7 4 6 11 19 12 25 25 27 41 47 34 26 28 22 27 33 31 29 30 30 32 28 28 25 23
6 10 9 16 16 12 7 8 9 11 11 5 7 4 6 4 7 9 4 7 3 3 3 4 4 10 6 5 5 8 4 4 7 6 9 8 8 11 10 13 8 7 11 9 7 8 5 6 9 8 12 16 15 17 15 8 13 17 15 18 12 10 12 11 13 24 7 18 44 19 17 26 46 34 27 27 27 24 27 30 32 30 30 34 34 30 27 29
10 4 4 4 6 11 12 13 14 17 20 5 6 4 2 6 8 8 10 3 3 4 6 8 6 4 4 4 5 11 6 6 5 7 6 8 8 7 14 8 5 7 9 6 4 6 6 8 7 7 12 16 14 16 14 12 12 13 13 13 14 12 11 13 16 19 17 25 39 24 26 36 45 34 33 30 30 32 32 32 31 30 33 32 33 35 36 35
8 4 3 5 7 6 7 12 13 10 16 5 3 7 6 5 7 5 4 9 7 4 4 6 8 9 9 5 4 8 7 16 11 8 9 8 5 10 11 9 4 7 7 6 6 4 5 8 8 9 14 13 14 15 14 16 14 13 12 10 9 10 12 13 16 17 20 23 26 29 29 41 43 37 33 36 32 35 40 36 34 31 33 33 34 35 37 38
7 5 8 9 6 6 5 6 7 7 10 10 7 7 5 6 7 11 8 5 7 5 2 3 8 12 9 7 4 7 8 8 13 17 9 5 13 6 6 6 9 7 10 8 5 2 6 10 13 9 10 20 12 12 13 15 12 13 9 8 10 11 12 14 16 16 19 24 23 23 29 40 39 27 30 29 29 30 34 39 39 37 34 34 35 36 37 38
5 3 3 7 9 8 6 6 8 7 7 10 11 7 7 6 7 6 9 5 6 5 3 7 8 10 7 4 5 8 14 13 12 17 19 7 14 6 6 7 3 11 9 10 6 8 6 8 7 7 11 15 7 6 9 10 13 15 14 12 11 13 18 15 22 15 15 27 27 27 33 39 30 20 23 26 29 32 36 38 38 37 36 38 38 39 38 38
4 3 5 7 6 7 8 6 6 7 8 4 8 7 8 7 7 7 13 8 3 6 6 7 7 2 9 7 12 12 12 10 13 15 14 11 14 6 7 5 4 4 7 7 3 7 8 8 12 10 11 14 12 6 10 9 10 11 21 15 10 12 14 20 21 21 24 23 26 29 33 29 30 29 34 37 33 36 39 40 40 42 42 42 44 44 43 42
Wind_Speed
18 18 18 18 18 17 17 17 17 16 16 16 16 16 16 16 16 15 15 16 16 17 17 17 16 16 16 17 18 16 15 6 9 3 2 7 6 6 6 2 1 1 2 1 4 7 6 5 7 8 4 1 1 1 3 1 1 2 5 7 11 7 8 4 6 5 3 5 5 6 7 8 6 1 2 0 1 2 4 4 2 2 6 2 2 8 14 19
19 19 19 19 18 18 17 17 17 17 16 17 16 16 16 16 16 16 15 16 16 16 17 16 16 15 15 16 17 16 11 4 5 5 7 4 6 5 5 2 1 2 3 3 4 3 4 6 4 4 4 0 1 1 2 2 2 5 0 3 13 6 4 5 4 5 4 2 6 9 7 8 8 5 3 3 3 4 3 4 5 4 3 6 9 13 16 15
19 19 18 19 18 18 17 17 17 17 16 16 16 16 16 16 15 15 15 15 16 16 16 16 15 16 15 15 13 12 7 4 1 4 3 1 5 5 5 4 3 2 1 1 0 1 0 2 3 2 2 0 1 3 1 3 3 4 2 6 10 1 2 3 3 5 4 4 3 3 3 6 3 5 2 6 8 7 9 6 0 6 4 6 9 12 15 17
19 18 18 18 18 17 18 17 17 17 17 17 17 17 16 16 16 15 15 15 15 16 15 15 15 14 15 14 12 6 1 2 2 3 4 3 2 3 2 3 2 3 3 2 1 0 0 0 1 1 1 0 2 0 2 4 2 2 5 6 2 3 2 3 3 3 3 2 1 3 1 2 2 3 2 2 5 5 5 6 10 8 10 9 12 15 15 17
19 19 18 19 18 18 18 18 18 18 17 17 17 17 16 16 16 16 15 15 16 16 15 15 13 13 13 12 10 0 1 3 1 1 7 1 4 5 4 4 4 3 2 2 0 1 1 0 0 1 1 2 2 1 2 2 2 0 6 5 5 1 1 4 5 7 4 4 2 1 1 4 1 1 5 5 7 7 6 7 9 13 12 12 13 15 14 16
19 19 19 19 19 19 18 18 18 18 18 18 17 17 17 16 16 16 16 16 16 16 15 14 13 12 11 9 2 1 1 2 1 3 1 1 4 5 5 3 6 4 3 3 1 1 1 2 2 2 2 0 1 2 3 4 4 6 4 3 3 4 4 2 2 4 5 2 4 2 4 1 2 3 3 5 9 6 5 4 13 13 12 16 18 17 15 14
20 20 20 20 19 19 19 19 19 18 18 18 18 17 16 16 16 17 16 16 16 15 14 13 12 11 12 6 1 3 2 2 1 8 3 1 4 5 4 5 7 3 3 1 2 1 1 2 2 1 1 1 2 1 6 2 2 5 7 0 3 2 6 6 4 4 1 2 4 3 1 1 1 2 1 1 6 6 5 4 3 3 1 11 13 18 21 20
21 21 20 20 20 20 19 19 19 19 19 17 17 17 17 17 17 16 16 16 15 15 13 13 12 10 10 2 1 3 2 1 4 5 4 3 6 4 6 3 3 3 1 2 1 1 0 1 2 1 1 2 2 0 2 4 1 4 4 3 4 5 4 4 5 4 4 5 6 2 2 5 3 3 1 5 7 10 6 3 3 2 9 11 13 17 20 20
21 21 20 20 20 20 20 20 19 19 18 18 18 18 18 17 16 17 16 16 14 14 13 11 10 9 3 1 2 2 1 3 5 3 3 4 4 5 4 1 2 3 1 1 3 1 1 2 1 1 2 1 0 4 3 3 4 1 3 1 3 4 5 6 7 7 5 3 2 4 9 3 5 5 5 8 8 11 12 4 5 6 10 13 16 18 18 18
20 21 21 21 21 20 20 20 20 19 19 19 18 18 18 17 17 17 16 15 13 12 12 10 8 6 2 1 2 5 3 5 2 3 2 2 2 3 2 3 3 2 0 1 2 2 1 2 1 3 2 1 0 3 0 2 2 2 3 5 6 7 5 4 8 8 4 3 1 3 3 6 4 5 7 3 12 10 4 4 3 9 11 13 13 12 10 10
21 21 22 22 21 21 21 20 20 20 20 19 18 18 18 18 18 17 16 14 12 11 9 8 7 2 0 1 3 2 3 3 1 3 4 2 3 2 6 3 4 1 2 2 3 5 5 2 2 1 1 0 0 5 1 3 1 5 4 4 6 9 7 5 5 7 4 3 6 5 6 6 9 4 11 4 3 6 5 4 7 8 10 12 14 14 13 14
22 22 22 22 22 22 21 21 21 22 21 20 19 19 19 18 18 17 15 13 10 9 7 5 3 1 2 2 2 1 0 2 3 3 3 1 2 6 6 4 5 4 3 3 4 5 5 2 2 1 2 1 2 3 2 3 1 5 0 3 7 2 3 5 8 6 4 5 3 5 1 4 6 12 7 4 3 6 5 7 9 9 10 12 12 10 9 11
22 23 23 22 22 22 21 22 22 21 21 21 20 19 19 19 17 15 13 9 6 6 4 4 1 0 0 4 5 8 3 3 4 5 3 2 2 3 4 2 4 5 5 4 5 4 5 3 1 1 3 1 1 1 2 3 4 3 1 2 5 3 2 7 5 5 7 3 7 6 7 8 14 13 1 5 7 4 3 6 9 9 10 11 11 11 11 9
22 24 24 23 22 22 22 22 22 22 23 22 21 19 18 18 15 12 9 5 2 2 3 3 2 1 1 3 6 4 4 3 4 6 3 0 1 5 3 2 2 3 3 5 7 2 2 3 3 3 2 2 2 2 5 4 3 3 3 1 3 2 3 4 7 6 10 5 7 5 9 11 13 3 3 4 5 5 5 7 8 8 9 9 9 10 11 12
24 24 24 23 23 22 22 22 21 22 22 22 21 18 18 15 12 9 3 2 3 4 5 4 1 1 2 6 5 8 9 1 4 6 1 1 1 4 4 4 5 0 4 6 1 0 3 5 1 1 2 1 0 2 4 3 3 2 3 4 3 4 6 6 4 10 12 2 9 6 10 12 11 3 4 2 3 6 8 8 9 9 9 10 9 9 8 10
24 23 24 22 22 22 22 22 21 22 21 22 21 19 15 11 6 2 4 4 4 7 3 0 0 2 1 2 1 4 2 3 7 5 4 3 3 3 4 3 4 2 4 1 1 2 1 1 1 3 1 1 2 1 2 4 4 4 1 4 2 1 5 6 3 8 15 5 5 13 8 2 8 6 6 3 3 3 3 5 8 11 10 10 9 8 8 6
25 24 22 23 23 22 22 23 23 23 20 21 22 15 10 3 7 9 8 6 4 3 1 0 0 0 1 2 2 4 3 4 4 3 2 3 4 3 3 4 2 5 5 3 2 3 1 1 1 1 4 1 1 2 1 3 4 4 1 3 1 1 1 4 7 1 3 9 7 11 14 3 2 3 4 3 7 5 3 5 8 10 10 11 10 10 8 9
25 25 24 23 22 22 22 22 23 23 23 22 18 11 3 5 9 9 7 4 2 1 1 0 2 1 3 3 4 5 5 6 7 6 4 2 3 1 1 1 1 4 3 3 3 1 1 0 4 3 3 3 1 2 2 5 7 4 2 2 3 2 2 5 0 1 3 4 9 11 7 5 4 7 8 4 4 5 9 10 9 10 11 10 10 11 11 10
25 25 25 24 22 21 22 21 22 22 21 24 8 4 4 5 2 2 3 1 0 2 2 3 4 3 2 8 9 6 5 6 6 1 5 2 1 1 1 1 3 2 3 3 1 2 2 1 3 2 4 3 3 6 7 7 2 1 1 2 1 3 4 5 5 3 1 1 7 4 5 6 4 7 10 2 4 8 7 5 6 11 12 12 12 11 10 11
24 23 25 23 21 20 21 20 20 19 19 14 8 3 3 7 6 2 4 3 2 1 1 2 1 3 6 6 5 7 7 3 1 3 4 1 1 2 2 2 3 5 4 3 6 2 0 1 1 5 7 7 6 6 8 4 2 0 1 1 4 3 6 4 5 6 3 1 5 5 5 4 6 9 11 3 4 5 5 5 5 5 8 10 11 10 12 13
25 25 24 24 22 22 20 20 18 17 15 4 4 6 4 1 2 3 6 6 3 2 2 4 4 3 5 4 5 5 6 4 1 2 3 0 2 1 2 3 5 6 4 2 1 3 3 2 3 5 8 7 8 5 4 3 2 3 2 2 3 2 5 5 3 1 2 1 2 1 6 6 8 8 3 2 5 8 9 7 7 8 8 7 7 7 9 11
23 24 25 23 22 21 20 19 18 18 10 0 5 4 1 0 1 1 1 4 6 2 2 5 1 3 5 6 5 2 2 2 8 7 5 2 3 4 3 5 2 3 4 4 4 7 3 1 5 7 6 3 4 3 4 4 3 1 3 3 2 6 6 11 7 3 2 4 4 0 3 4 8 9 1 6 7 5 9 11 10 11 10 6 6 6 6 3
22 25 24 22 20 19 19 18 18 14 3 5 3 1 1 3 1 1 1 0 4 3 1 0 1 2 4 3 2 4 2 1 3 6 4 3 3 2 0 3 4 2 2 4 4 3 3 3 6 6 6 4 3 0 1 1 2 4 2 1 3 2 1 3 2 3 4 1 1 2 3 5 5 5 5 6 5 3 6 6 7 11 12 11 11 10 9 8
22 24 23 22 21 20 18 18 15 3 3 0 1 2 1 2 1 2 1 1 2 7 1 2 0 1 3 4 1 4 1 2 1 7 3 2 1 1 2 0 1 2 4 1 0 1 4 5 4 3 3 4 2 3 3 4 3 2 2 1 2 2 2 4 3 4 2 1 3 3 2 3 3 0 4 1 3 3 2 2 4 6 7 13 12 11 11 12
21 25 23 22 21 20 18 14 4 2 1 0 1 3 2 2 0 2 3 1 1 3 3 1 1 0 3 2 2 1 1 2 2 3 2 1 3 1 1 0 1 1 2 3 0 1 6 4 2 4 4 6 4 5 2 2 7 5 3 3 3 3 5 4 3 2 4 1 3 1 1 2 3 3 7 5 2 2 2 1 5 8 8 7 9 12 11 11
21 24 23 21 20 20 16 1 1 1 2 0 0 2 3 2 1 2 3 3 1 3 6 2 0 1 1 3 5 0 1 1 1 3 3 2 1 1 1 1 1 3 2 3 2 2 2 1 2 2 2 4 4 2 1 2 1 2 2 3 2 3 1 3 2 3 2 1 1 2 3 2 4 2 4 1 0 4 3 2 5 5 7 7 9 8 8 10
24 23 22 19 16 17 3 0 1 1 2 1 1 3 3 2 1 2 1 4 2 1 3 3 3 0 2 2 4 1 2 5 9 2 5 4 3 1 0 4 2 0 1 0 4 2 1 4 4 3 4 4 3 6 1 2 3 1 2 1 2 2 1 1 3 3 1 2 2 5 3 1 1 4 1 3 2 4 2 5 6 4 5 7 8 7 7 9
24 23 21 17 13 9 1 1 4 1 2 0 2 3 2 1 3 3 3 2 2 3 2 4 0 3 4 6 5 4 2 5 4 2 6 8 0 3 1 3 1 3 2 2 2 5 1 4 1 4 2 2 1 1 2 1 0 3 1 1 3 1 1 1 3 3 0 1 3 6 5 1 2 4 2 2 4 2 5 5 6 6 3 4 5 5 6 9
22 22 19 15 12 4 2 1 0 1 1 2 3 3 2 4 5 5 4 2 1 1 4 1 5 2 8 7 6 5 2 2 2 4 10 2 5 2 1 2 1 2 1 2 4 4 2 4 1 1 0 3 4 2 2 3 2 2 1 3 4 4 4 2 2 1 2 3 2 2 3 1 4 4 5 2 4 1 5 5 6 6 7 4 5 5 6 5
22 20 17 11 6 2 1 1 3 2 2 3 2 1 4 6 2 1 4 2 1 2 1 2 3 5 3 5 3 7 6 3 0 5 3 2 9 5 1 0 0 2 0 4 2 6 5 4 3 3 1 2 2 2 0 0 3 1 2 0 4 6 4 3 6 2 4 1 2 2 1 1 1 3 3 2 1 2 1 1 2 5 5 4 3 3 4 5
22 18 14 7 1 1 3 2 4 2 3 1 1 5 3 6 2 4 1 2 0 3 3 3 3 3 5 7 6 6 1 3 7 6 6 5 10 7 6 2 5 4 5 7 4 9 6 2 3 1 1 3 0 1 2 2 2 3 2 1 3 1 6 3 4 5 2 2 4 2 0 1 4 3 3 5 3 2 3 2 2 4 5 6 5 5 4 3
21 18 11 3 3 0 3 2 2 2 2 0 4 5 3 2 6 4 2 3 1 4 1 4 2 2 5 3 2 8 4 6 4 5 6 4 4 9 6 4 3 4 5 4 6 6 2 4 3 5 3 4 2 1 3 5 5 7 4 6 1 2 3 1 5 1 0 3 0 4 2 2 2 6 2 2 3 3 3 0 1 3 6 6 7 7 5 3
23 20 7 5 3 1 5 1 1 1 1 1 5 2 3 6 1 3 2 2 1 0 2 1 2 3 4 2 5 7 1 2 5 4 3 1 4 2 2 5 2 1 1 1 1 7 6 3 5 6 4 2 2 4 5 5 5 5 3 2 3 1 2 0 2 0 3 4 2 2 2 1 3 7 4 3 5 4 3 4 3 3 4 6 7 8 8 9
23 15 1 3 7 5 1 0 0 2 1 3 4 5 7 7 1 1 2 1 2 1 1 2 5 5 3 3 3 2 5 1 5 5 3 2 5 5 5 5 7 6 2 2 4 1 4 4 3 4 1 3 2 1 1 2 1 0 2 1 2 4 3 2 3 1 2 3 3 4 2 3 3 3 2 1 4 4 6 4 2 4 4 4 6 6 6 6
20 3 2 1 1 6 9 6 2 0 3 4 11 6 5 1 2 1 1 2 2 2 1 2 2 3 3 4 2 1 2 3 3 5 5 4 3 2 4 4 4 2 0 2 2 1 1 5 8 3 5 1 4 1 2 3 2 1 2 3 5 1 4 1 2 2 2 0 3 1 3 2 4 4 3 2 2 1 3 4 3 2 4 5 5 6 6 7
8 2 1 1 1 2 1 3 4 2 2 9 8 6 3 3 0 1 1 2 0 1 4 3 2 4 2 4 2 5 4 1 5 3 2 2 1 2 3 1 2 4 3 2 2 1 3 2 2 8 2 1 4 1 1 2 0 2 1 0 1 3 5 4 1 2 3 4 3 0 7 5 7 8 3 4 6 4 4 3 2 2 2 3 3 5 6 6
5 6 2 3 2 1 1 3 3 4 7 9 7 1 2 1 4 3 2 0 1 1 2 3 3 2 3 3 2 5 3 2 2 3 3 2 1 1 2 3 2 3 1 1 3 2 1 8 5 3 3 2 0 0 1 2 2 2 3 2 0 1 2 4 2 2 3 2 4 2 2 5 2 5 5 8 5 1 1 1 3 6 3 1 3 5 7 7
4 2 1 2 3 1 2 2 2 6 6 7 4 2 0 1 1 1 1 1 0 3 2 2 1 3 1 0 5 3 5 3 7 3 2 2 1 1 1 2 3 3 2 1 2 1 2 3 3 1 3 8 4 3 2 2 3 1 1 1 1 1 1 3 3 1 0 1 3 4 2 4 4 6 7 9 6 6 6 3 1 1 3 3 4 6 8 8
0 1 1 3 4 1 2 1 6 3 5 7 0 2 1 2 1 1 5 5 1 3 1 1 0 1 0 1 3 2 1 3 2 2 2 1 3 1 1 1 2 4 2 3 1 1 0 0 6 1 2 5 3 4 1 6 7 2 1 2 0 2 1 0 1 2 4 2 3 4 2 4 5 5 3 6 5 5 6 5 5 1 1 3 5 5 6 8
4 1 1 0 3 2 1 2 3 6 6 3 2 1 1 0 1 1 1 1 0 2 1 0 0 1 1 4 1 2 2 1 0 2 1 1 1 4 1 2 2 5 6 2 1 0 1 0 3 4 5 3 2 1 1 1 2 6 6 3 4 2 1 3 1 1 1 2 3 1 5 6 6 5 3 6 6 7 5 7 5 3 0 1 2 3 5 6
1 2 1 2 6 0 2 7 8 4 3 1 1 1 1 0 0 1 3 1 0 1 1 1 3 1 1 2 3 1 1 1 1 1 1 3 0 3 1 2 1 4 3 3 3 1 1 2 2 6 7 3 5 2 1 3 2 1 2 2 2 3 1 1 2 2 3 1 1 1 8 7 6 6 8 5 3 6 4 4 5 4 4 1 3 4 5 6
1 1 1 1 6 2 3 5 2 0 2 1 1 0 1 3 1 2 1 1 2 1 2 2 1 0 1 2 2 1 1 2 1 1 1 1 3 3 4 2 1 1 1 1 2 2 2 1 0 4 3 8 11 10 2 1 1 2 4 3 3 3 3 4 1 1 2 0 1 1 1 8 4 1 1 1 2 5 5 5 10 10 8 5 4 5 6 6
4 1 4 2 4 3 6 3 1 3 0 1 3 0 1 0 1 1 0 1 0 1 1 0 1 1 2 1 0 0 0 1 2 1 2 2 3 4 5 5 3 4 1 2 1 1 1 1 2 4 5 5 2 3 7 4 4 5 5 4 4 4 1 2 2 2 1 2 1 1 2 6 3 1 2 0 3 9 8 7 12 14 13 13 11 8 8 6
1 1 5 2 3 4 6 1 2 3 2 3 2 1 2 1 0 2 1 1 0 1 0 0 2 2 1 0 1 0 1 1 1 1 2 0 3 5 4 5 3 1 1 1 1 3 2 1 2 3 3 4 2 1 4 2 6 3 1 2 2 2 2 0 2 1 0 4 4 2 7 3 3 1 6 12 14 11 11 10 8 14 15 14 14 13 12 12
0 1 1 7 7 6 3 3 2 1 1 1 1 4 5 1 1 1 0 1 0 1 1 1 1 1 0 0 1 0 2 1 2 2 2 1 3 2 6 2 3 1 2 3 7 1 1 2 1 2 2 1 2 1 3 4 3 2 1 2 3 3 4 2 0 2 1 1 2 2 8 9 4 10 11 8 10 16 15 14 13 9 12 15 14 13 13 12
3 1 5 5 6 5 3 1 3 1 1 1 3 1 1 2 3 3 2 2 2 0 1 1 1 1 0 2 2 1 1 0 2 2 1 2 3 2 3 4 5 2 6 3 1 1 1 0 1 2 2 3 4 4 1 1 1 1 0 4 3 2 2 2 1 2 2 2 6 8 11 19 21 1 8 13 11 15 18 15 12 12 12 12 13 14 14 14
1 3 1 3 5 6 2 3 2 2 0 1 1 0 3 2 2 3 1 0 1 0 0 0 0 2 1 2 1 2 1 2 2 1 3 2 3 3 5 5 2 3 7 2 3 2 1 1 3 4 6 7 7 9 2 3 3 3 3 1 4 2 2 3 2 1 2 4 7 2 4 9 20 18 16 17 16 14 14 16 17 15 14 16 17 17 19 17
2 1 1 1 1 2 3 2 5 3 2 0 0 0 1 2 3 2 4 0 0 0 0 1 1 0 1 1 1 1 2 2 0 2 3 2 2 4 4 4 2 4 5 1 2 1 1 1 1 2 3 5 6 6 7 4 0 1 3 3 4 6 5 2 2 4 2 3 7 8 10 15 19 19 19 17 16 16 16 17 17 17 19 19 19 20 21 20
3 0 0 1 0 2 2 2 2 1 1 1 1 2 1 0 1 1 1 4 3 1 1 1 4 4 0 1 1 1 1 4 3 2 0 3 2 3 3 3 1 3 4 3 3 0 1 2 3 2 8 6 6 5 3 3 2 3 5 3 4 5 6 6 7 7 6 9 10 12 14 18 19 17 17 16 13 14 16 15 17 19 20 20 20 21 21 22
2 1 1 3 2 0 2 1 0 3 4 3 1 1 0 0 2 3 2 2 1 1 0 0 5 8 2 3 3 1 2 1 3 4 1 2 6 0 0 0 3 3 4 2 1 1 2 2 8 4 4 3 3 2 1 2 4 7 4 3 3 3 4 6 7 7 8 9 10 12 14 17 16 11 10 12 15 18 18 19 20 19 18 19 19 21 22 22
0 1 1 1 1 2 1 2 2 2 1 4 3 1 1 0 0 0 3 2 2 1 0 3 5 6 0 1 2 4 4 4 5 7 8 2 1 2 1 2 1 3 5 4 2 3 3 2 3 2 4 3 2 3 2 3 7 7 8 8 7 9 11 8 7 5 6 10 11 11 12 11 11 8 13 16 16 17 19 20 19 19 21 23 24 24 23 23
1 0 1 1 0 1 2 1 1 1 1 1 0 1 0 2 1 1 2 2 1 3 1 2 3 0 4 3 5 3 3 5 7 7 6 4 4 2 0 1 0 0 2 2 0 2 3 3 4 5 3 2 4 3 2 5 5 3 11 8 5 5 5 8 8 7 7 7 9 7 9 9 14 15 18 21 19 21 21 18 20 22 21 22 24 25 27 27
Wind_Direction
349 348 347 347 346 344 344 344 343 341 339 338 336 334 334 335 333 332 330 330 326 324 326 325 326 324 323 326 329 331 333 336 325 357 6 236 195 221 189 237 354 332 44 63 22 35 346 13 6 345 30 104 249 112 239 175 160 106 202 211 231 220 204 180 184 177 197 149 203 198 192 180 222 251 238 57 180 188 188 189 175 132 41 120 24 127 136 145
348 347 347 346 346 345 344 344 342 340 339 335 334 333 333 332 332 329 328 327 326 323 324 325 324 322 325 326 327 330 336 305 305 286 229 223 193 220 220 157 102 21 50 39 41 59 27 339 334 13 26 90 322 195 136 248 151 194 256 186 234 201 236 160 170 206 136 219 197 191 189 184 217 158 228 171 235 185 164 245 174 170 51 69 100 124 139 149
349 348 348 346 346 344 343 341 340 338 336 333 331 331 330 329 329 326 326 325 324 325 325 326 326 323 322 325 325 333 345 332 253 25 329 205 214 219 212 181 130 74 90 102 239 113 160 280 285 14 349 353 319 199 151 254 156 230 146 225 233 104 224 226 176 201 195 174 197 206 229 181 232 175 233 204 213 201 183 194 262 167 178 148 145 140 151 163
347 346 346 344 343 342 341 340 338 335 333 331 329 327 325 325 323 323 323 322 323 324 326 326 323 323 322 322 329 340 21 334 40 273 267 231 161 184 212 208 203 99 99 65 135 114 181 43 12 123 23 47 300 15 135 252 146 277 193 217 240 210 209 279 241 222 242 155 257 205 258 165 260 223 217 209 206 226 224 206 177 180 183 172 162 161 163 170
346 346 344 343 342 341 340 338 335 333 330 327 325 322 322 319 318 317 316 315 320 321 323 323 323 320 322 323 331 61 26 55 273 237 261 291 140 115 126 148 134 90 114 130 66 59 59 75 90 43 74 283 336 4 236 253 210 137 220 229 234 330 211 245 233 261 218 193 191 304 273 245 257 299 222 197 213 214 204 213 194 181 182 161 167 170 173 175
346 345 344 343 342 339 338 336 333 331 329 324 322 319 317 315 311 310 311 312 316 318 319 319 318 320 318 328 33 93 88 75 253 277 272 344 116 132 137 141 124 104 88 47 71 328 58 350 43 40 360 82 258 156 266 216 170 250 259 231 202 222 233 260 239 225 243 201 182 189 239 217 222 256 259 205 215 230 226 211 193 187 176 178 170 161 175 182
345 343 343 342 340 338 336 334 331 329 325 323 319 317 313 310 310 308 309 310 312 314 315 314 315 318 321 351 87 65 95 267 328 255 332 206 126 128 148 120 99 87 83 49 17 31 352 19 56 6 92 4 303 220 274 297 292 214 241 34 272 208 212 244 249 302 319 251 220 207 5 241 242 267 261 240 252 246 275 264 248 343 354 159 157 171 176 185
344 343 342 341 339 337 334 332 330 326 324 320 318 313 313 311 309 305 304 308 309 308 310 312 315 316 336 27 47 350 45 312 254 273 284 358 63 67 109 106 117 98 84 216 203 345 35 46 35 99 84 79 244 238 296 355 251 208 257 249 252 247 234 252 259 270 275 259 251 206 213 236 201 206 245 242 277 282 267 280 269 149 134 154 174 181 183 185
343 343 340 339 338 336 333 331 329 325 321 319 316 314 311 309 304 304 305 306 306 303 302 307 317 317 339 75 96 46 346 240 218 316 360 352 74 55 79 323 123 130 165 134 189 201 129 271 24 148 292 346 212 337 329 25 325 212 226 242 253 241 238 224 257 260 239 270 220 289 280 244 213 211 238 209 227 253 265 240 220 147 152 169 186 190 186 189
341 340 339 338 337 335 332 330 327 324 318 317 315 310 307 306 305 304 304 304 303 301 298 297 302 327 24 54 35 69 267 224 341 357 31 50 53 15 358 184 124 115 21 258 99 127 181 222 190 230 178 272 214 279 158 134 230 186 249 233 242 248 235 235 212 249 228 209 198 230 284 294 260 154 271 232 215 225 266 294 190 157 177 181 181 185 198 204
340 340 338 338 336 334 331 329 327 322 319 314 311 308 303 306 306 305 305 302 298 296 295 295 292 335 199 70 83 55 254 39 10 348 351 71 345 313 271 197 175 172 179 233 220 189 210 206 206 77 88 221 15 286 168 234 322 276 246 291 259 247 229 222 210 227 236 265 212 193 260 255 273 188 231 213 236 197 178 178 170 178 186 186 188 190 189 176
339 339 339 337 335 333 331 327 326 323 318 313 311 308 311 309 305 306 302 300 296 287 282 285 292 127 71 72 133 208 103 236 344 297 291 284 244 221 238 190 161 177 158 261 243 221 196 192 117 54 246 18 317 315 309 244 335 274 184 314 293 345 239 225 205 212 192 255 160 166 232 277 248 233 230 183 235 266 226 174 179 187 189 192 193 191 181 176
340 340 338 336 334 333 330 327 325 322 316 314 310 316 316 311 304 303 300 298 289 267 244 240 205 101 75 15 237 237 283 268 300 312 307 192 267 270 249 218 197 191 194 198 260 213 200 147 138 8 234 120 220 248 285 347 287 334 52 170 329 351 277 239 196 187 194 217 162 141 251 232 243 247 109 205 203 216 195 175 187 193 193 193 191 190 187 167
340 338 337 335 333 331 329 328 325 321 320 316 314 319 316 309 305 300 298 278 241 198 206 176 103 48 83 236 274 252 250 263 317 325 291 94 62 292 338 302 231 218 180 218 255 206 154 175 161 211 155 170 261 290 343 333 22 248 274 138 250 2 265 248 167 190 199 162 184 158 232 239 247 249 145 221 187 160 183 197 192 193 195 197 196 193 192 184
339 339 338 335 333 331 329 328 325 322 320 317 315 322 316 308 307 301 309 156 180 192 168 93 54 66 34 282 265 280 259 282 356 282 228 153 164 324 310 346 321 123 205 193 198 164 150 118 104 23 266 275 34 11 303 360 358 347 8 289 323 169 279 287 280 170 190 198 171 158 241 236 247 226 207 252 218 190 190 192 188 186 191 193 192 202 203 202
339 339 338 335 333 332 328 327 325 324 321 317 317 324 318 319 315 83 120 107 123 140 131 43 338 103 93 0 300 331 38 23 319 272 262 177 158 228 255 300 288 355 26 278 175 152 111 134 191 202 263 350 51 86 14 7 337 351 126 289 268 208 250 338 241 202 184 147 200 190 239 98 263 251 224 227 172 228 221 204 172 183 190 189 194 204 212 204
339 338 338 335 332 331 328 328 328 326 322 319 322 325 330 16 80 82 93 95 96 95 113 169 51 286 74 239 286 12 328 289 278 327 359 202 161 196 346 352 336 335 347 340 58 114 356 103 321 42 38 129 153 97 4 347 301 302 38 230 224 197 294 218 304 338 267 182 208 214 224 205 237 274 274 255 194 201 186 200 188 185 186 190 194 196 201 203
338 338 338 336 333 331 330 329 329 327 326 322 327 310 298 108 101 88 55 62 111 81 267 94 96 40 302 3 359 304 314 294 320 298 269 254 152 122 184 314 326 333 21 9 355 72 318 281 37 193 8 353 15 71 143 222 200 224 279 5 326 327 214 236 293 263 138 266 220 208 217 229 266 279 259 186 216 202 202 193 192 191 189 192 192 195 197 195
337 336 336 335 332 330 330 330 329 327 328 323 333 15 87 143 12 77 101 104 85 1 23 333 29 65 204 283 311 284 286 253 293 333 315 5 53 105 45 72 56 359 345 47 285 38 348 65 25 27 306 316 256 178 183 223 173 206 176 224 183 307 303 294 254 278 258 166 243 246 190 204 232 252 259 219 206 184 226 230 205 190 192 192 194 197 191 198
337 336 335 334 332 330 330 330 326 325 334 332 7 9 13 16 6 334 335 36 76 174 231 260 104 242 293 298 280 275 271 354 34 285 328 307 325 353 38 53 1 47 57 17 311 20 124 87 252 253 251 249 250 205 209 232 212 84 122 150 249 261 279 275 265 235 243 156 234 212 165 199 218 218 247 212 212 199 207 193 207 223 203 195 200 197 196 199
337 337 335 334 331 330 330 330 327 324 334 330 329 54 48 338 48 331 321 289 258 275 243 250 197 202 243 290 297 343 4 322 73 291 308 163 74 97 296 32 18 35 348 292 237 298 64 44 299 248 251 255 256 224 233 280 212 209 225 232 290 209 258 251 244 50 293 134 303 122 156 199 216 233 241 211 156 210 203 206 190 197 207 204 199 209 208 213
335 336 335 333 330 329 328 330 328 327 333 249 52 74 142 193 224 192 88 333 327 265 244 263 205 291 296 249 250 198 123 300 335 327 313 30 327 55 309 80 72 10 312 348 24 15 25 57 291 293 295 273 245 208 196 197 245 199 205 203 257 262 241 283 285 304 248 113 254 160 180 239 230 234 207 185 174 218 213 195 190 188 201 203 200 202 207 147
336 336 336 333 331 327 329 324 325 326 6 35 37 66 44 296 11 283 103 137 282 283 326 337 359 273 316 287 270 130 11 288 320 317 314 32 351 54 330 39 7 314 342 35 54 359 16 288 275 299 331 355 29 317 143 177 163 187 117 118 211 239 17 309 299 352 356 90 282 183 196 279 304 288 238 237 182 232 221 225 208 185 190 200 200 196 190 191
336 338 336 334 330 329 324 323 314 12 36 141 156 85 302 356 19 90 66 173 289 312 242 282 339 221 330 339 323 359 355 285 70 316 310 54 1 225 65 153 43 47 336 338 170 189 212 243 274 336 356 33 60 16 68 49 344 337 142 158 264 308 270 166 265 338 311 7 75 67 48 333 340 90 251 340 280 316 308 251 277 293 226 199 203 202 195 194
335 336 336 333 330 328 322 319 34 337 282 151 261 250 295 320 215 181 96 340 14 303 235 330 147 314 274 330 343 327 275 288 230 245 277 31 321 38 298 170 97 270 275 276 163 301 291 259 256 338 24 22 69 37 25 112 12 333 236 198 270 260 302 300 329 31 24 343 350 101 13 292 294 298 251 297 348 225 272 190 239 228 241 238 214 212 203 200
335 335 335 333 331 328 315 22 336 346 8 173 90 292 316 340 93 108 97 72 343 273 351 309 252 328 329 318 335 275 63 343 273 278 281 250 188 188 19 354 111 291 296 331 281 214 214 337 59 6 21 34 52 87 304 98 88 71 325 182 245 297 223 273 320 63 26 137 296 41 151 267 322 257 230 312 338 255 305 298 249 215 234 228 219 211 190 194
335 333 332 333 333 335 19 34 292 243 31 313 261 302 312 327 148 83 3 6 17 308 310 281 39 96 17 302 323 23 49 286 312 320 359 0 343 9 209 279 3 301 230 177 43 302 343 325 12 13 40 53 39 30 294 124 88 333 267 134 336 20 275 246 89 104 176 259 300 36 88 143 326 289 67 294 187 218 289 285 275 238 221 225 231 214 201 199
333 331 329 330 330 344 185 332 354 75 222 212 267 298 15 294 100 53 82 63 324 317 359 320 34 302 33 313 344 71 192 280 14 310 351 315 214 333 63 268 244 238 274 65 298 254 118 312 20 355 34 44 22 208 273 166 137 233 267 283 339 255 273 85 87 98 205 55 295 337 346 80 255 267 333 147 93 236 239 245 252 272 257 276 286 276 244 212
329 328 326 325 327 360 164 172 109 236 248 262 301 335 10 58 77 98 110 109 257 357 217 60 280 7 329 343 42 26 323 12 65 286 320 354 64 197 18 297 179 292 30 168 216 294 274 188 223 144 103 291 242 260 244 154 29 294 226 74 66 56 59 69 83 71 348 64 284 307 353 177 291 277 341 344 90 197 255 261 290 288 287 258 242 260 272 291
325 324 323 320 337 109 2 42 225 238 274 275 331 28 48 51 38 33 26 308 359 321 348 259 31 294 347 342 326 1 11 337 304 304 4 64 328 23 34 92 262 27 10 1 207 225 257 300 195 107 195 218 234 260 229 244 253 290 54 87 1 33 9 9 63 81 59 28 264 241 334 134 298 269 234 91 163 169 157 347 306 307 307 304 270 226 235 249
324 319 314 314 174 218 125 323 262 251 254 288 65 52 72 42 107 97 99 239 289 268 354 9 339 18 11 30 349 335 346 341 346 16 349 352 7 36 16 14 30 47 32 354 356 330 337 353 81 267 290 280 104 317 14 7 336 81 38 69 30 331 5 28 344 32 94 279 258 291 90 69 161 296 310 243 286 280 101 101 310 312 311 306 313 322 311 266
324 319 306 208 227 296 178 245 189 199 276 311 64 59 72 295 11 85 223 339 58 303 56 298 310 12 333 316 20 348 334 323 356 20 12 356 23 41 3 73 341 24 349 8 325 345 10 30 297 323 282 35 358 56 317 2 2 49 56 32 81 280 34 323 3 325 188 172 252 17 10 36 228 221 189 236 268 279 255 309 349 305 308 318 323 324 315 298
325 324 311 195 173 238 246 199 138 283 60 51 70 51 54 95 28 269 293 333 260 185 301 160 268 347 318 20 357 333 298 44 321 8 24 347 72 20 33 60 350 127 325 286 301 13 285 292 4 348 18 31 77 83 330 14 343 30 66 100 76 70 39 242 276 242 311 290 287 350 304 268 261 296 245 222 215 240 238 240 270 291 288 309 319 326 331 325
324 324 62 195 194 222 248 222 120 341 45 38 79 35 55 60 265 237 278 234 265 336 316 25 322 351 23 57 314 334 356 281 24 336 12 355 45 25 337 4 26 9 71 349 52 322 47 344 313 18 351 318 52 140 242 191 316 123 167 124 180 143 155 212 205 174 213 193 287 291 51 230 131 228 158 204 214 253 281 269 297 283 290 300 296 307 320 327
319 350 99 35 255 249 241 232 258 119 82 68 52 79 96 240 230 233 275 297 294 315 329 5 20 18 325 2 284 15 91 302 0 356 10 39 12 22 348 342 1 42 111 78 291 69 248 220 257 231 259 340 357 309 122 98 45 287 163 96 65 281 147 93 208 139 220 33 357 267 208 183 181 267 256 272 13 353 285 321 16 346 334 345 346 331 319 312
341 308 117 306 261 297 165 181 163 119 84 59 78 45 88 178 283 167 248 193 33 25 298 7 59 40 312 315 310 17 306 75 303 32 334 37 263 61 332 347 32 32 35 64 233 11 17 315 273 320 11 225 356 303 281 116 63 270 62 82 246 174 107 81 73 39 68 51 252 158 318 298 298 316 321 20 72 64 25 20 354 322 306 343 324 311 304 298
15 331 47 327 316 268 161 158 140 78 60 88 89 89 203 276 192 163 237 238 285 123 54 72 324 67 336 316 285 336 310 53 320 43 343 331 359 332 6 316 289 41 113 144 322 211 52 268 304 46 343 292 48 165 30 20 144 64 76 240 229 99 113 123 196 350 64 131 258 20 239 301 18 275 323 354 11 330 129 174 309 304 325 300 283 302 305 302
344 347 248 324 306 48 164 179 72 52 76 78 71 138 193 77 181 177 187 94 17 43 89 100 281 75 284 37 312 322 313 73 324 35 309 342 294 316 82 319 297 11 335 200 133 286 153 336 298 270 257 275 347 77 10 329 33 136 191 218 96 302 12 327 85 342 288 301 290 321 273 262 188 254 327 314 327 318 326 336 124 254 296 280 289 300 308 316
143 53 33 324 328 174 162 77 63 71 65 57 43 82 254 221 247 181 209 136 105 116 64 235 168 295 133 285 247 307 336 22 321 350 42 325 44 283 55 174 308 316 336 111 85 226 343 215 299 293 11 307 350 54 21 313 334 22 51 23 20 106 154 60 197 173 111 262 39 295 24 251 204 219 215 271 288 300 304 318 307 270 266 305 304 303 310 320
24 40 327 7 343 65 77 56 61 45 64 97 213 216 226 258 268 266 167 156 266 97 240 132 163 307 289 245 147 313 308 81 79 279 102 264 299 291 328 320 291 322 334 340 222 181 296 137 261 278 302 360 30 4 156 124 10 341 21 349 356 5 224 106 76 68 198 179 170 217 315 272 260 216 209 265 275 285 312 315 324 325 90 185 266 286 298 304
325 99 268 321 349 189 58 43 46 38 98 267 132 224 331 254 329 316 14 132 115 270 153 189 162 197 236 17 340 188 272 344 17 355 196 299 105 351 265 228 316 326 331 355 41 343 45 19 267 320 345 8 255 209 170 158 124 132 133 8 224 3 359 17 275 10 46 51 244 109 271 270 265 212 213 238 346 1 333 323 314 306 296 248 249 258 257 273
65 53 303 320 338 72 85 49 10 144 89 82 27 205 353 61 59 315 11 345 108 141 27 110 170 150 132 238 215 312 14 322 254 305 275 252 275 185 274 264 355 231 33 295 272 264 145 167 118 307 242 286 295 307 232 172 110 97 102 50 87 116 101 86 119 281 5 285 142 146 298 281 252 326 43 79 33 349 309 307 312 313 308 295 262 255 254 245
47 207 263 7 340 87 64 62 295 32 44 244 286 306 292 354 151 265 59 350 14 106 19 39 194 84 249 181 311 270 214 295 191 216 260 236 276 224 247 308 333 319 114 305 17 296 98 44 327 279 308 300 322 21 65 72 90 46 36 43 51 29 63 157 182 200 165 293 327 337 251 248 279 252 141 36 311 317 327 341 334 325 322 318 318 313 303 293
191 272 323 299 21 92 78 121 352 317 293 322 28 299 309 207 99 6 355 287 130 350 172 227 340 169 278 76 130 258 199 6 173 240 309 282 278 260 285 297 295 295 110 247 119 272 25 297 110 342 342 333 337 330 26 343 53 67 12 9 62 59 28 330 88 84 356 243 176 132 255 258 263 245 311 334 340 333 326 323 322 312 311 311 310 310 306 303
266 290 245 304 349 54 111 187 147 188 290 352 356 27 348 354 214 247 186 277 90 172 85 277 207 178 262 18 254 235 242 176 305 231 201 227 257 306 303 265 275 234 220 266 306 104 79 225 35 326 306 295 313 296 295 323 328 333 294 41 28 60 25 26 30 48 66 290 139 211 260 265 267 322 318 320 331 320 313 311 312 300 299 305 306 303 301 297
30 65 309 344 8 27 63 32 94 134 116 21 49 315 102 347 326 335 149 273 182 193 167 226 7 121 53 22 352 352 330 313 174 286 16 295 289 301 246 340 9 329 329 360 135 90 143 349 165 200 213 256 260 280 136 125 306 304 16 50 355 53 22 18 125 147 226 307 271 253 270 291 290 62 305 309 313 308 307 308 305 306 301 297 296 297 296 295
158 71 4 336 342 38 81 27 39 43 206 153 98 229 20 335 263 324 131 30 349 80 317 94 326 41 310 46 313 325 268 326 315 317 246 230 256 268 310 322 1 36 338 357 33 88 70 325 247 214 242 243 261 277 256 191 254 300 348 13 333 15 45 48 116 270 110 318 280 239 263 282 291 305 306 311 308 304 305 308 311 308 305 304 302 297 293 289
57 250 105 203 120 279 30 327 35 341 315 100 155 106 106 7 10 15 322 36 349 29 67 332 55 325 196 217 128 305 320 317 34 250 315 236 310 319 4 12 31 342 12 357 358 93 152 213 267 180 264 267 265 275 298 289 156 39 35 340 337 337 356 35 221 232 209 223 258 286 293 287 287 295 300 297 301 305 306 305 301 302 302 299 297 296 295 291
118 232 147 331 139 257 177 280 338 57 19 143 90 64 18 86 341 242 195 316 15 328 71 323 302 316 242 237 123 271 252 14 324 268 204 320 32 338 3 337 242 37 18 13 360 65 66 260 262 264 300 299 287 279 286 310 73 81 56 12 338 343 314 289 264 260 235 250 266 279 283 278 279 282 287 296 301 297 297 297 297 296 295 294 292 290 288 287
357 67 308 355 89 126 277 357 61 58 54 328 78 331 127 241 318 331 339 159 314 316 351 211 289 305 305 207 167 274 259 217 237 282 260 27 333 77 283 206 291 321 32 3 21 318 68 335 357 327 313 309 302 267 134 109 122 107 68 40 344 313 269 265 273 268 268 261 256 263 276 280 272 279 299 306 307 304 299 297 295 292 290 290 288 286 284 282
208 160 150 92 23 298 327 19 43 83 54 346 72 288 60 275 299 51 263 225 183 244 254 296 287 305 29 152 171 241 260 245 239 220 255 228 202 232 105 305 106 319 343 344 37 322 23 302 323 321 334 309 320 22 135 155 149 110 44 16 1 355 355 342 318 302 294 284 287 286 282 275 292 315 302 294 292 291 291 293 297 302 303 300 297 291 285 280
101 252 83 110 123 324 17 330 41 65 30 229 137 265 150 261 273 56 331 286 242 233 220 286 288 189 312 12 313 286 281 261 262 255 242 221 229 232 199 188 153 339 303 320 22 24 360 325 348 354 327 264 302 338 357 129 155 17 14 328 311 296 290 289 268 256 255 272 292 290 277 285 298 306 306 301 301 298 299 301 304 298 291 288 286 287 286 286